SCP
1 1 1 1 1 1 1 1 1 1 1 1 1 1 1 0 0 1 1 1 1 1 1 1 1 1 1 1 0 0 0 0 0 0 0 0 0 0 0 0 0 0 0
1 1 1 1 1 1 1 1 1 1 1 1 1 1 1 1 1 1 1 1 1 1 1 1 1 1 1 1 1 1 0 0 0 0 0 0 0 0 0 0 0 0 0
1 1 1 1 1 1 1 1 1 1 1 1 1 1 1 1 1 1 1 1 1 1 1 1 1 1 1 1 1 1 1 1 1 1 0 0 0 0 0 0 0 0 0
1 1 1 1 1 1 1 1 1 1 1 0 1 1 1 0 0 1 1 1 1 1 1 1 1 1 1 1 1 1 1 1 1 1 1 1 0 0 0 0 0 0 0
0 0 0 0 0 0 0 0 0 0 0 0 0 0 0 0 0 0 1 1 1 1 1 1 1 1 1 1 1 1 1 1 1 1 1 1 1 0 0 0 0 0 0
0 0 0 0 0 0 0 0 0 0 0 0 0 0 0 0 0 1 1 1 1 1 1 1 1 1 1 1 1 1 1 1 1 1 1 1 1 1 1 0 0 0 0
0 0 0 0 0 0 0 0 0 0 0 0 0 0 0 0 0 1 1 1 1 1 1 1 1 1 1 1 1 1 1 1 1 1 1 1 1 1 1 1 0 0 0
0 0 0 0 0 0 0 0 0 0 0 0 0 0 0 0 0 0 0 1 1 1 1 1 1 1 1 1 1 1 1 1 1 1 1 1 1 1 1 1 1 0 0
0 0 0 0 0 0 0 0 0 0 0 0 0 0 0 0 0 0 0 0 1 1 1 1 1 1 1 1 1 1 1 1 2 2 1 1 1 1 1 1 1 1 0
0 0 0 0 0 0 0 0 0 0 0 0 0 0 0 0 0 0 0 0 0 1 1 1 1 1 1 1 1 1 1 1 1 2 2 1 1 1 1 1 1 1 1
0 0 0 0 0 0 0 0 0 0 0 0 0 0 0 0 0 0 0 0 0 0 0 0 1 1 1 1 1 1 1 1 1 1 1 1 1 1 1 1 1 1 1
0 0 0 0 0 0 0 0 0 0 0 0 0 0 0 0 0 0 0 0 0 0 0 0 0 1 1 1 1 1 0 0 1 1 1 1 1 1 1 1 1 1 1
0 0 0 0 0 0 0 0 0 0 0 0 0 0 0 0 0 0 0 0 0 0 0 0 0 0 1 1 0 0 0 0 0 0 1 1 1 1 1 1 1 1 1
0 0 0 0 0 0 0 0 0 0 0 0 0 0 0 0 0 0 0 0 0 0 0 0 0 0 0 0 0 0 0 0 0 0 0 1 1 1 1 1 1 1 1
0 0 0 0 0 0 0 0 0 0 0 0 0 0 0 0 0 0 0 0 0 0 0 0 0 0 0 0 0 0 0 0 0 0 0 0 0 1 1 1 1 1 1
0 0 0 0 0 0 0 0 0 0 0 0 0 0 0 0 0 0 0 0 0 0 0 0 0 0 0 0 0 0 0 0 0 0 0 0 0 0 0 0 0 0 0
0 0 0 0 0 0 0 0 0 0 0 0 0 0 0 0 0 0 0 0 0 0 0 0 0 0 0 0 0 0 0 0 0 0 0 0 0 0 0 0 0 0 0
0 0 0 0 0 0 0 0 0 0 0 0 0 0 0 0 0 0 0 0 0 0 0 0 0 0 0 0 0 0 0 0 0 0 0 0 0 0 0 0 0 0 0
0 0 0 0 0 0 0 0 0 0 0 0 0 0 0 0 0 0 0 0 0 0 0 0 0 0 0 0 0 0 0 0 0 0 0 0 0 0 0 0 0 0 0
0 0 0 0 0 0 0 0 0 0 0 0 0 0 0 0 0 0 0 0 0 0 0 0 0 0 0 0 0 0 0 0 0 0 0 0 0 0 0 0 0 0 0
0 0 0 0 0 0 0 0 0 0 0 0 0 0 0 0 0 0 0 0 0 0 0 0 0 0 0 0 0 0 0 0 0 0 0 0 0 0 0 0 0 0 0
0 0 0 0 0 0 0 0 0 0 0 0 0 0 0 0 0 0 0 0 0 0 0 0 0 0 0 0 0 0 0 0 0 0 0 0 0 0 0 0 0 0 0
0 0 0 0 0 0 0 0 0 0 0 0 0 0 0 0 0 0 0 0 0 0 0 0 0 0 0 0 0 0 0 0 0 0 0 0 0 0 0 0 0 0 0
0 0 0 0 0 0 0 0 0 0 0 0 0 0 0 0 0 0 0 0 0 0 0 0 0 0 0 0 0 0 0 0 0 0 0 0 0 0 0 0 0 0 0
0 0 0 0 0 0 0 0 0 0 0 0 0 0 0 0 0 0 0 0 0 0 0 0 0 0 0 0 0 0 0 0 0 0 0 0 0 0 0 0 0 0 0
0 0 0 0 0 0 0 0 0 0 0 0 0 0 0 0 0 0 0 0 0 0 0 0 0 0 0 0 0 0 0 0 0 0 0 0 0 0 0 0 0 0 0
Wind_Speed
0 1 1 1 3 2 2 2 3 3 4 4 4 5 4 4 4 2 5 14 15 15 16 16 16 16 16 15 15 14 14 14 12 12 11 11 12 12 11 11 10 10 10
0 1 2 2 3 2 1 2 3 3 4 3 4 5 5 5 4 4 3 9 14 16 16 17 17 17 17 17 17 16 16 15 14 13 13 12 12 12 12 12 11 11 10
1 1 2 2 1 2 2 2 3 3 4 4 5 5 5 5 5 5 4 4 7 14 17 17 17 17 18 19 19 18 17 16 15 15 14 13 13 13 13 12 12 12 11
2 1 1 1 2 2 1 2 2 2 3 3 4 5 5 5 7 6 6 5 5 7 13 18 18 18 19 20 20 20 19 18 17 16 16 15 15 14 13 13 13 13 12
3 2 2 1 2 2 2 3 1 1 3 3 4 5 5 5 6 8 8 8 7 6 6 13 19 19 20 21 21 21 20 20 19 19 18 18 16 15 15 14 14 13 13
3 3 2 2 2 2 1 1 2 2 3 3 6 5 4 5 5 6 8 8 7 9 9 9 10 13 19 19 20 21 22 22 21 21 20 20 19 17 16 16 15 14 14
2 2 3 2 2 2 2 3 2 3 3 3 3 4 4 6 6 6 6 6 8 9 8 8 8 7 9 18 20 20 22 23 22 22 21 21 20 18 18 17 16 16 15
1 3 2 2 3 2 3 2 2 2 4 2 2 3 3 4 4 7 6 6 7 6 7 10 8 9 7 7 12 21 22 23 23 23 22 22 21 20 19 19 18 17 16
1 2 2 2 3 3 3 3 2 3 3 3 3 2 2 3 3 2 4 4 4 4 4 5 7 9 9 7 7 16 21 21 22 24 24 23 21 20 20 20 19 18 18
2 2 2 2 2 3 4 4 2 3 3 3 3 2 3 2 2 4 3 3 4 4 4 5 6 7 8 7 8 12 18 20 21 23 24 24 23 22 21 21 21 20 19
3 4 2 1 1 3 4 4 4 4 3 4 3 3 3 3 4 4 4 3 2 3 3 4 4 4 6 7 7 11 16 19 20 22 23 24 24 23 23 23 23 23 22
3 3 2 2 2 3 4 4 4 5 4 4 4 3 3 3 3 3 4 4 3 3 3 3 3 4 5 6 10 14 16 18 20 21 22 23 23 24 24 24 24 24 23
3 4 4 3 3 4 4 4 4 5 5 5 5 4 4 4 3 3 4 4 4 3 3 3 4 3 5 5 6 11 13 16 19 20 21 21 22 22 23 23 24 24 23
4 5 5 4 4 5 6 4 4 5 5 5 6 5 4 4 4 3 3 3 4 4 4 4 2 3 3 3 5 8 7 13 16 18 19 20 20 21 21 21 21 21 21
5 5 6 6 5 5 5 5 4 5 5 5 5 5 5 4 4 4 4 3 3 4 5 4 2 2 2 2 4 4 5 9 13 16 18 19 20 20 20 20 20 19 19
5 5 5 6 5 5 6 5 5 5 5 5 4 5 5 5 5 4 3 3 3 4 5 3 3 2 2 3 4 4 5 8 12 14 17 18 19 20 20 20 20 19 19
5 5 5 5 6 6 6 5 6 6 6 6 6 6 6 5 5 5 4 4 4 4 5 5 3 3 2 2 2 2 3 4 6 13 15 17 18 18 19 19 19 19 19
5 6 5 5 6 6 5 6 7 7 6 6 6 6 6 6 6 5 5 5 5 4 4 5 4 3 3 3 3 3 3 4 5 10 15 17 17 18 18 19 19 19 19
5 5 5 5 6 6 6 6 6 6 6 6 6 6 6 7 6 5 6 6 5 6 4 5 5 3 3 3 3 3 4 3 5 7 12 15 17 17 17 18 18 19 18
5 5 5 5 6 6 7 6 6 6 6 6 6 7 7 7 7 6 6 6 6 5 5 5 4 4 3 3 3 3 3 3 3 4 6 8 12 15 16 17 17 18 18
7 5 5 6 6 6 5 4 5 7 6 7 7 7 8 9 9 7 7 5 5 4 4 5 4 4 4 3 3 3 4 3 3 3 3 4 6 7 9 12 15 16 17
5 5 6 6 7 7 2 1 3 6 6 7 7 7 8 10 10 12 13 11 9 7 5 5 4 4 4 4 3 3 3 2 3 2 2 3 4 6 6 7 12 16 17
5 6 6 6 6 6 6 6 6 6 7 8 8 7 9 10 8 6 8 11 12 13 12 7 7 6 5 4 3 3 3 3 3 2 2 3 3 4 4 6 14 16 16
5 5 6 7 6 7 6 7 7 7 8 8 9 9 8 8 9 6 6 6 6 7 10 10 8 8 7 5 4 4 4 3 3 2 3 3 3 3 3 3 10 14 15
6 6 7 7 7 6 6 8 7 6 7 8 8 8 7 7 6 6 6 6 6 6 9 12 12 11 10 8 5 3 3 3 3 3 3 3 2 2 2 2 4 10 12
6 7 7 6 7 7 6 8 8 5 6 7 6 6 7 7 6 6 6 6 7 6 6 6 5 8 9 9 10 6 5 5 4 3 3 3 2 2 2 2 3 5 6
Wind_Direction
266 315 297 284 261 238 208 210 222 226 233 241 244 240 249 257 269 259 164 175 176 179 184 188 193 196 197 196 196 195 193 192 187 184 183 181 177 173 172 170 165 161 160
218 266 254 241 254 261 231 213 219 219 230 237 244 243 243 248 254 256 192 184 187 188 190 194 198 201 202 201 200 198 197 196 191 188 188 187 183 180 179 177 173 169 167
315 279 261 258 273 268 237 227 244 225 227 232 237 243 244 243 247 248 238 198 195 200 200 201 202 203 205 205 204 202 200 199 195 192 191 190 187 185 184 182 179 175 173
360 308 293 319 311 288 270 245 235 246 244 240 237 239 237 230 240 239 237 226 212 208 209 209 208 207 208 209 208 205 202 201 198 195 194 193 191 189 188 187 185 181 179
13 347 333 345 300 279 264 271 250 262 268 263 253 237 231 229 226 231 227 226 220 218 207 208 209 208 210 212 211 209 205 203 201 199 197 197 196 193 191 191 189 186 184
24 352 321 7 324 294 289 289 288 261 256 256 267 268 247 242 231 227 230 227 219 220 218 213 204 211 213 212 212 211 209 206 203 202 201 200 200 196 193 193 192 190 189
23 324 347 346 322 323 322 300 295 283 264 247 263 280 265 244 235 228 225 226 222 220 218 214 201 200 207 214 214 212 211 209 205 204 204 202 201 199 197 195 195 193 192
356 316 14 328 334 327 300 292 291 289 289 283 262 282 287 271 244 236 222 221 223 219 218 222 212 203 206 200 210 213 214 213 209 206 205 203 201 199 199 199 198 196 195
321 324 329 319 325 312 310 314 298 286 290 298 267 265 281 291 321 279 242 231 217 214 220 221 218 211 209 207 202 210 213 213 212 209 207 204 201 199 199 200 200 199 198
301 287 279 292 316 312 312 306 337 313 301 294 289 264 253 275 289 305 296 261 234 224 223 234 230 211 208 210 210 207 208 210 212 212 209 206 203 201 200 201 202 202 202
279 266 251 259 293 291 305 317 316 307 299 291 296 298 286 272 241 252 279 283 270 240 224 228 233 220 208 212 214 215 210 208 209 212 211 207 206 204 202 203 205 207 207
303 322 336 13 319 306 310 306 302 292 285 290 289 284 281 273 273 262 268 278 273 262 243 230 223 226 217 212 222 222 212 207 208 210 211 209 207 206 205 206 208 209 210
331 11 6 347 315 303 292 287 290 284 281 277 274 269 273 272 270 278 280 285 288 283 265 247 226 216 220 211 221 223 214 207 206 208 208 208 207 207 206 207 208 210 211
331 345 337 326 316 307 303 309 298 286 281 278 274 271 272 274 266 258 260 271 288 286 268 259 248 227 220 208 207 214 217 209 207 207 207 207 206 206 205 206 207 207 209
320 342 337 324 315 310 302 298 286 283 282 278 276 278 269 269 268 258 251 241 251 276 279 272 263 246 221 211 196 206 215 210 210 209 209 208 206 204 203 203 204 205 206
314 315 311 309 308 304 298 293 290 284 285 278 265 264 272 270 273 271 261 249 236 247 267 279 279 279 277 247 204 213 215 209 209 210 210 209 207 204 203 203 203 204 206
309 300 299 302 303 299 295 292 287 285 282 278 276 271 267 267 269 275 272 260 246 236 253 268 267 270 259 265 227 225 215 207 209 211 209 209 207 205 205 205 205 205 205
304 302 301 300 297 297 298 293 291 293 292 289 285 281 277 273 262 262 267 268 261 246 243 259 266 266 261 251 232 232 230 229 218 213 209 209 207 205 205 205 205 205 204
301 300 295 294 294 295 293 289 285 284 285 286 286 284 281 279 274 266 263 263 264 263 248 249 254 249 247 241 230 234 233 238 237 219 209 208 207 205 204 205 205 204 203
298 295 295 292 289 289 286 289 293 291 289 287 285 283 279 276 272 269 265 258 260 263 263 258 255 251 245 243 226 223 236 230 241 231 216 205 205 204 204 204 204 203 202
297 300 299 292 288 283 284 296 298 295 300 296 290 285 279 275 271 262 264 264 269 266 264 258 253 245 242 235 226 221 230 230 233 222 206 195 188 197 203 205 204 203 201
297 294 290 290 289 292 312 295 290 299 296 292 289 285 283 273 261 249 245 245 244 250 257 260 260 252 251 248 238 230 229 229 236 211 193 209 190 194 192 195 197 196 197
301 297 294 291 288 281 261 246 249 273 281 280 280 280 282 284 295 275 255 244 241 240 235 241 255 256 256 250 242 251 248 239 242 223 193 222 204 206 198 198 186 187 190
299 296 292 289 284 280 254 236 243 260 272 272 271 268 267 271 279 284 285 273 258 247 233 228 234 243 246 243 233 228 239 251 250 239 205 224 212 206 190 167 175 179 183
294 290 286 284 282 278 244 229 231 271 273 275 273 273 270 269 266 266 267 267 267 266 261 243 225 229 232 229 216 211 224 227 243 237 215 208 208 181 168 153 158 173 175
287 287 287 286 283 278 244 220 218 261 280 286 286 279 269 267 261 253 256 261 262 265 277 285 250 239 232 224 213 212 217 220 226 232 204 188 195 168 164 146 148 158 162